Pagina principale
METAR-TAF:

METAR-TAF

Aeroporti :

Aeroporto di Albenga

Albenga, Italia

latitudine: 44-03N, longitudine: 008-07E, altezza: 45 m

Osservazione

Il bollettino è stato emesso 6 ore e 26 minuti fa, alle 17:50 UTC
Vento 6 kt da est
Temperature 27°C
Umidità 62%
Pressione 1014 hPa
Visibilità 10 km o più
nessuna nube inferiore a 1500 m e nessun cumulonembo

METAR: LIMG 141750Z 08006KT CAVOK 27/19 Q1014

Ora: 02:16 (00:16 UTC)


TAF: mancante

Osservazioni e previsioni meteorologiche di più di 4000 aeroporti (messaggi METAR e TAF).

Le stazioni disponibili sono rappresentate dai dischi gialli e rossi sulla carta.

Puntare il mouse per vedere il nome della stazione.

Clicca sopra per visualizzare le osservazioni e previsioni meteorologiche.

Per cambiare la mappa : fare clic sui pulsanti verdi con una croce nera per ingrandire, il pulsante verde con un trattino per diminuire, o sulla freccia verde per le mappe adiacenti.


METAR-TAF: